CZ-6A DEB, 54343

Orbit data source: Space-Track

CZ-6A DEB, 54343 is space debris in SSO originally from a launch on Fri, 11 Nov 2022 UTC launched from the Taiyaun Space Center, China (TSC). Debris objects in space refer to the collection of defunct objects orbiting the Earth. Examples of debris include non-operational satellites, rocket bodies, and fragments generated from explosions, collisions, or faulty payload assembly.

Loading next visibility...
Identifier
54343, 2022-151CN
Orbit
SSO
Country
Flag of CNCN / PRC
Related business
Manufacturer
SAST
Mission
Spacecraft
Bus & Motor
Unknown
Mass
Unknown
Launch date (UTC)
2022-11-11 (4 years ago)
Launch vehicle
Unknown
Launch site
Taiyaun Space Center, China (TSC)
Object type
Payload
Rocket body
Debris
Shape & HBR
Unknown shape, 0.1 m
Radar Cross Section
Medium (>0.1 m² and <1 m²)

Expand to show TLE details & history
Last TLE update: 18 hours ago

TLE from 18 hours ago
0 CZ-6A DEB
1 54343U 22151CN  26264.97946555  .00000071  00000-0  63600-4 0  9997
2 54343  98.8428 264.5721 0042755  64.7420 295.8173 14.10742414198172
Epoch: 2026-09-21T23:30Z
TLE epoch observation values (Epoch: 2026-09-21T23:30:25.823Z)
Latitude
-0.00001°
Longitude
-88.88702°
Altitude
846.363 km
Speed
7.436 km/s
True Right ascension
17h 38m 17s
True Declination
0° 00' 00"
Sunlit
Object was in daylight at epoch
Visualization orbit readout
Latitude
Unknown
Longitude
Unknown
Altitude
Unknown
Speed
Unknown
Apparent Right ascension
Unknown
Apparent Declination
Unknown
Sunlit
N/A
Visualization observer readout
Local Sidereal Time
11:00:05
Azimuth
Unknown
Elevation
Unknown
Doppler factor
Unknown
Orbital elements
Apogee altitude
884.931 km
Perigee altitude
823.089 km
Semi-major axis
7,232.147 km
Eccentricity
0.00428
Inclination
98.8428°
RAAN
264.5721°
Arg. of periapsis
64.742°
True anomaly
295.37524°
Mean anomaly
295.8173°
Eccentric anomaly
295.59637°
Mean motion
3.52892 °/min
Orbital period
102.01 mins
BSTAR
0.0000636
Loading maneuver chart data...
Computing Atmospheric mass density...

Documentation

Showing up to 5 results
|